sat.trackr.live / text

‹ back to catalog

COSMOS 2593

NORAD 65269 · 2025-182C

PAYLOAD ACTIVE UNKNOWN

§ Identity

Operator
Country
CIS
Launch date
2025-08-21
Launch site
PLMSC
Launch vehicle
Mass (kg)
RCS (m²)

External: N2YO · Heavens-Above · Gunter

§ Orbital elements

Epoch: 2026-09-20T17:36:00.022176Z

Period
90.22 min
Inclination
96.5829°
Eccentricity
0.0006568
Mean motion
15.96148389 rev/d
Perigee alt
280.7 km
Apogee alt
289.5 km
Semi-major
6,663.3 km
B*
1.7613e-4
RAAN
192.7906°
Arg perigee
113.3735°
Mean anomaly
246.8235°
Rev number
6,293

§ Raw data

COSMOS 25931 65269U 25182C   26263.73333359  .00071713  37988-5  17613-3 0  99912 65269  96.5829 192.7906 0006568 113.3735 246.8235 15.96148389 62935

JSON: /api/v1/satellites/65269 · /tle

For live sub-satellite position, see the globe view (requires WebGL).

§ Visibility from observer

Set your observer location to see the next 7 days of passes ≥ 10°. The values pass through the URL so the page stays shareable.

No JS? Fill the form by hand. The geolocation button needs JavaScript.